Tracking 18957 objects as of 22-Jan-2018
HD Live streaming from Space Station
objects crossing your sky now

UME 2 (ISS-B)

Track UME 2 (ISS-B) now!
10-day predictions
UME 2 (ISS-B) is classified as:


NORAD ID: 10674
Int'l Code: 1978-018A
Perigee: 979.6 km
Apogee: 1,226.4 km
Inclination: 69.4 °
Period: 107.2 minutes
Semi major axis: 7474 km
RCS: 1.4219 m2 (large)
Launch date: February 16, 1978
Source: Japan (JPN)
Launch site: TANEGASHIMA SPACE CENTER (TNSTA)
aabbcc
Your satellite tracking list
Your tracking list is empty




NASA's NSSDC Master Catalog

Two Line Element Set (TLE):
1 10674U 78018A   18021.81957578 -.00000033  00000-0  27302-4 0  9999
2 10674  69.3636 317.7802 0165148 200.2207 190.7427 13.43606007958753
Source of the keplerian elements: AFSPC